This demonstration page uses our WeatherBlox Daily Observations layout. Learn more.

Left ArrowRight Arrow

44.8408, -93.29828

Hourly Observations for April 25, 2017

Temp ( °F °C ) Dew Point ( °F °C ) Humidity (%) Winds ( mph kmh ) Pressure ( in mb ) Visibility ( mi km ) Precip ( " mm )
12:53 am 00:53 Cloudy 58 14.4 47 8.3 67 67 ESE 6 9 29.53 1000 10 16 0.00 0.03
1:53 am 01:53 Cloudy 61 16.1 37 2.8 41 41 SE 10 17 29.51 999 10 16 0.00 0.00
2:53 am 02:53 Cloudy 61 16.1 35 1.7 38 38 SSE 10 17 29.48 998 10 16 0.00 0.00
3:53 am 03:53 Cloudy 61 16.1 35 1.7 38 38 SSE 8 13 29.48 998 10 16 0.00 0.00
4:53 am 04:53 Cloudy 60 15.6 36 2.2 41 41 SSE 7 11 29.48 998 10 16 0.00 0.00
5:53 am 05:53 Mostly Cloudy 58 14.4 36 2.2 44 44 SE 8 13 29.48 998 10 16 0.00 0.00
6:53 am 06:53 Mostly Cloudy 57 13.9 38 3.3 49 49 SSE 6 9 29.49 999 10 16 0.00 0.00
7:53 am 07:53 Mostly Cloudy 55 12.8 45 7.2 69 69 WSW 9 15 29.51 999 10 16 0.00 0.00
8:53 am 08:53 Mostly Cloudy 53 11.7 45 7.2 74 74 SW 8 13 29.52 1000 9 14 0.00 0.00
9:53 am 09:53 Mostly Cloudy 53 11.7 45 7.2 74 74 SSW 7 11 29.54 1000 9 14 0.00 0.00
10:53 am 10:53 Cloudy 57 13.9 46 7.8 67 67 SSW 6 9 29.54 1000 10 16 0.00 0.00
11:53 am 11:53 Cloudy 58 14.4 45 7.2 62 62 WSW 8 13 29.55 1001 10 16 0.00 0.00
12:53 pm 12:53 Cloudy 56 13.3 46 7.8 70 70 W 6 9 29.54 1001 10 16 0.00 0.00
1:53 pm 13:53 Cloudy 56 13.3 45 7.2 67 67 SSW 9 15 29.57 1001 10 16 0.00 0.00
2:53 pm 14:53 Cloudy with Light Rain 53 11.7 47 8.3 80 80 VRB 6 9 29.57 1001 8 13 0.00 0.03
3:53 pm 15:53 Cloudy with Light Rain 53 11.7 47 8.3 80 80 SSW 3 6 29.56 1001 6 10 0.04 1.02
4:53 pm 16:53 Cloudy with Light Rain 53 11.7 49 9.4 86 86 ENE 6 9 29.54 1000 5 8 0.06 1.52
5:53 pm 17:53 Cloudy with Light Rain 54 12.2 49 9.4 83 83 ENE 6 9 29.55 1001 4 6 0.01 0.25
6:35 pm 18:35 Cloudy with Rain 54 12.2 51 10.6 90 90 Calm 29.56 1001 3 4 0.02 0.51
6:53 pm 18:53 Cloudy with Light Rain 54 12.2 51 10.6 90 90 N 3 6 29.57 1001 3 4 0.05 1.27
7:12 pm 19:12 Cloudy with Rain 54 12 52 11 94 94 NNE 6 9 29.56 1001 2 3 0.00 0.00
7:21 pm 19:21 Cloudy with Rain 54 12.2 51 10.6 90 90 N 6 9 29.56 1001 2 3 0.09 2.29
7:29 pm 19:29 Cloudy with Rain 54 12.2 51 10.6 90 90 N 8 13 29.56 1001 2 2 0.13 3.30
7:45 pm 19:45 Cloudy with Rain 54 12.2 52 11.1 93 93 NNE 5 7 29.56 1001 2 3 0.18 4.57
7:53 pm 19:53 Cloudy with Light Rain 54 12.2 52 11.1 93 93 N 9 15 29.57 1001 3 5 0.20 5.08
8:23 pm 20:23 Cloudy with Light Rain 54 12.2 51 10.6 90 90 NNE 9 15 29.56 1001 4 6 0.04 1.02
8:28 pm 20:28 Cloudy with Light Rain 54 12.2 51 10.6 90 90 NNE 8 13 29.56 1001 4 6 0.05 1.27
8:53 pm 20:53 Cloudy with Light Rain 54 12.2 51 10.6 90 90 NE 8 13 29.57 1001 5 8 0.05 1.27
9:03 pm 21:03 Cloudy with Light Rain 54 12 52 11 94 94 NE 8 13 29.56 1001 5 8 0.00 0.00
9:33 pm 21:33 Cloudy with Light Rain 54 12.2 51 10.6 90 90 NE 9 15 29.56 1001 5 8 0.03 0.76
9:53 pm 21:53 Cloudy with Light Rain 54 12.2 51 10.6 90 90 NNE 10 17 29.56 1001 5 8 0.04 1.02
10:53 pm 22:53 Cloudy 52 11.1 49 9.4 89 89 NNE 12 19 29.54 1000 10 16 0.00 0.03
11:53 pm 23:53 Cloudy 51 10.6 48 8.9 89 89 NNE 12 19 29.53 1000 10 16 0.00 0.00

Powered by AerisWeather